Hourly Data Report for December 18, 2020

L'ASSOMPTION
QUEBEC
Current Station Operator: ECCC - MSC

45°48'34.000" N
73°26'05.000" W
21.00 m
7014160
71524
WEW

Download Data

Hourly Data (December 2020)
Hourly Data Report for December 18, 2020
TIME
LST
Temp Definition
°C
Dew Point Definition
°C
Rel Hum Definition
%
Precip. Amount Definition
mm

Wind Dir Definition
10's deg

Wind Spd Definition
km/h
Visibility Definition
km
Stn Press Definition
kPa
Hmdx Definition


Wind Chill Definition


Weather Definition


00:00 -12.7 -18.5 62 0.0 1 6   102.58   -17 LegendNANA
01:00 -13.2 -18.4 65 0.0 1 6   102.56   -17 LegendNANA
02:00 -13.5 -18.7 64 0.0 1 9   102.59   -19 LegendNANA
03:00 -13.7 -19.2 63 0.0 2 5   102.59   -17 LegendNANA
04:00 -14.0 -19.7 62 0.0 3 4   102.59   -17 LegendNANA
05:00 -13.8 -20.5 57 0.0 2 5   102.61   -17 LegendNANA
06:00 -14.2 -20.4 59 0.0 3 5   102.65   -18 LegendNANA
07:00 -15.1 -20.2 65 0.0 35 5   102.72   -19 LegendNANA
08:00 -15.5 -18.9 76 0.0 32 4   102.78   -18 LegendNANA
09:00 -13.3 -18.7 63 0.0 32 4   102.84   -16 LegendNANA
10:00 -10.8 -18.0 55 0.0 1 6   102.88   -14 LegendNANA
11:00 -9.6 -19.2 45 0.0 1 6   102.85   -13 LegendNANA
12:00 -7.3 -17.8 43 0.0 33 3   102.78   -9 LegendNANA
13:00 -6.2 -18.2 38 0.0 8 4   102.77   -8 LegendNANA
14:00 -5.8 -16.7 42 0.0 13 5   102.72   -8 LegendNANA
15:00 -5.7 -16.8 41 0.0 9 3   102.74   -7 LegendNANA
16:00 -6.3 -16.2 45 0.0 14 2   102.79   -7 LegendNANA
17:00 -9.1 -14.7 64 0.0 8 3   102.81   -11 LegendNANA
18:00 -10.0 -14.3 71 0.0 0 1   102.84   -11 LegendNANA
19:00 -11.4 -15.1 74 0.0 0 1   102.84   -12 LegendNANA
20:00 -12.1 -15.1 79 0.0 0 1   102.85   -13 LegendNANA
21:00 -12.0 -14.1 84 0.0 8 1   102.79   -13 LegendNANA
22:00 -13.1 -15.0 85 0.0   0   102.82     LegendNANA
23:00 -13.5 -15.2 87 0.0 32 2   102.79   -15 LegendNANA

Notes on Data Quality.

Legend

  • E = Estimated
  • M = Missing
  • NA = Not Available*
  • [empty] = Indicates an unobserved value
Date modified: